Location: Highland Heights
(41.5520°N, 81.4785°W)
Time: 17:49:19
(UTC+00:00)

Daily predictions for brighter satellites

Satellite Brightness Start Highest point End
(mag) Time Altitude Azimuth Time Altitude Azimuth Time Altitude Azimuth
Cosmos 2237 Rocket 2.4 12:01:10 10° SW 12:06:38 49° WNW 12:12:08 10° NNE
ERS-2 3.1 12:06:25 10° NNW 12:08:22 16° WNW 12:10:19 10° WSW
Meteor 2-12 Rocket 4.5 12:02:24 10° N 12:08:32 83° W 12:14:39 10° S
SAR-Lupe-2 4.5 12:06:28 10° N 12:09:34 28° WNW 12:12:39 10° SW
CZ-4C R/B 3.6 12:04:37 10° NNW 12:11:51 61° NE 12:20:26 10° SE
Meteor 1-10 Rocket 4.3 12:06:40 10° NNW 12:12:31 75° W 12:18:13 10° S
Cosmos 2219 4.2 22:16:46 10° SW 22:22:08 47° WNW 22:27:35 10° NNE
Cosmos 2058 Rocket 3.2 22:19:10 10° S 22:23:37 81° W 22:28:02 10° N
Lacrosse 5 2.9 22:20:08 10° S 22:24:27 29° SE 22:28:48 10° ENE
Cosmos 1812 3.5 22:22:15 10° SSE 22:25:25 28° E 22:28:36 10° NNE
COSMO-SKYMED 1 4.3 22:23:15 10° ENE 22:25:35 14° E 22:27:55 10° SE
ATLAS 2AS CENTAUR R/B 4.0 22:20:44 10° NNW 22:25:40 20° NNE 22:30:26 10° ENE
[s.n.58448] 2.3 22:23:23 10° WNW 22:25:59 89° NNE 22:28:35 10° ESE
Tiangong 1.1 22:25:51 10° WSW 22:27:27 13° SSW 22:29:04 10° S
[s.n.58449] 2.2 22:25:24 10° WNW 22:27:56 89° SSE 22:30:26 10° ESE
SL-08 RB Rocket 4.1 22:24:21 10° S 22:28:47 70° WSW 22:33:18 10° NNW
ERS-2 2.1 22:25:55 10° S 22:28:48 63° WSW 22:31:42 10° NNW
[s.n.58459] 2.4 22:27:28 10° WNW 22:30:05 87° SSW 22:32:42 10° ESE
[s.n.58458] 2.4 22:28:12 10° WNW 22:30:49 86° SSW 22:33:27 10° ESE
[s.n.58447] 2.3 22:28:58 10° WNW 22:31:34 86° SSW 22:34:09 10° ESE
[s.n.58456] 2.4 22:29:04 10° WNW 22:31:41 86° SSW 22:34:18 10° ESE
[s.n.58457] 2.4 22:29:51 10° WNW 22:32:29 85° SSW 22:35:06 10° ESE
USA 307 3.0 22:29:05 10° NW 22:32:48 43° NNE 22:36:26 10° ESE
CZ-2C R/B 2.5 22:29:25 10° SSE 22:32:57 70° ENE 22:36:32 10° N
[s.n.58455] 2.4 22:30:39 10° WNW 22:33:17 84° SSW 22:35:54 10° ESE
[s.n.58454] 2.4 22:31:27 10° WNW 22:34:05 83° SSW 22:36:42 10° ESE
[s.n.58453] 2.4 22:32:16 10° WNW 22:34:54 83° S 22:37:31 10° ESE
[s.n.58452] 2.4 22:33:00 10° WNW 22:35:38 82° SSW 22:38:16 10° ESE
[s.n.58451] 2.4 22:33:49 10° WNW 22:36:28 81° SSW 22:39:05 10° ESE
Cosmos 2082 4.3 22:31:31 10° SW 22:37:02 57° WNW 22:42:35 10° NNE
[s.n.58450] 2.4 22:34:36 10° WNW 22:37:15 80° SSW 22:39:52 10° ESE
Cosmos 1437 Rocket 3.8 22:35:18 10° NNW 22:38:54 47° W 22:42:33 10° S
[s.n.58446] 2.5 22:37:00 10° WNW 22:39:38 78° SSW 22:42:16 10° ESE
[s.n.58445] 2.5 22:37:50 10° WNW 22:40:28 77° SSW 22:43:06 10° ESE
[s.n.58444] 2.5 22:38:39 10° WNW 22:41:17 76° SSW 22:43:55 10° ESE
AQUARIUS 4.3 22:37:41 10° SSE 22:41:59 49° ENE 22:46:18 10° N
[s.n.58443] 2.5 22:39:25 10° WNW 22:42:03 76° SSW 22:44:42 10° ESE
[s.n.58442] 2.5 22:40:17 10° WNW 22:42:55 75° SSW 22:45:34 10° ESE
[s.n.58441] 2.6 22:41:07 10° WNW 22:43:45 74° SSW 22:46:24 10° ESE
[s.n.58440] 2.6 22:41:52 10° WNW 22:44:31 73° SSW 22:47:10 10° ESE
SAR-Lupe-2 4.1 22:41:24 10° S 22:44:56 63° WSW 22:48:30 10° NNW
Cosmos 1818 3.8 22:39:53 10° SSW 22:45:09 56° ESE 22:50:29 10° NE
[s.n.58439] 2.6 22:42:42 10° WNW 22:45:22 72° SSW 22:48:00 10° ESE
[s.n.58437] 2.6 22:43:30 10° WNW 22:46:08 72° SSW 22:48:48 10° ESE
YAOGAN 11 4.5 22:41:38 10° N 22:46:10 72° WNW 22:50:41 10° SSW
[s.n.58438] 2.6 22:44:18 10° WNW 22:46:57 71° SSW 22:49:35 10° ESE
Meteor 1-25 Rocket 4.5 22:45:16 10° N 22:50:40 45° ENE 22:55:58 10° SSE
Cosmos 1933 4.3 22:48:03 10° SE 22:51:22 25° E 22:54:40 10° NNE
Cosmos 1666 2.7 22:48:50 10° NNW 22:52:22 74° W 22:55:53 10° S
ATLAS CENTAUR R/B 2.9 22:48:37 10° NW 22:53:07 61° NE 23:01:50 10° SE
USA 306 1.1 22:53:26 10° NW 22:55:35 76° SW 22:57:38 10° SE
Cosmos 2026 Rocket 4.3 22:53:39 10° SSE 22:59:28 43° E 23:05:23 10° NNE
Meteor 1-31 Rocket 2.6 22:57:05 10° SSE 23:00:45 88° ENE 23:04:29 10° NNW
USA 305 2.6 22:58:26 10° NW 23:02:14 58° NE 23:05:45 11° ESE
Cosmos 1844 Rocket 3.1 22:57:24 10° S 23:02:34 41° ESE 23:07:07 13° NE
Cosmos 2263 Rocket 3.3 22:57:25 10° SW 23:02:39 41° WNW 23:07:55 10° N
CORIOLIS 4.3 22:59:04 10° S 23:04:24 80° WSW 23:09:49 10° NNW
USA 234 3.3 22:59:38 12° NE 23:05:43 79° SE 23:12:15 10° SW
Cosmos 1140 Rocket 3.4 23:05:03 10° NNW 23:10:15 81° ENE 23:15:23 10° SSE
ADEOS 4.2 23:07:03 10° SE 23:11:38 32° ENE 23:16:14 10° N
Cosmos 2227 4.3 23:06:12 10° SSW 23:11:57 82° WNW 23:17:45 10° NNE
SKYMED 2 3.8 23:09:48 10° NNE 23:13:59 46° E 23:18:09 10° S
Nadezhda 4 Rocket 4.2 23:10:54 10° SSW 23:17:02 72° W 23:23:10 10° N
Cosmos 1092 Rocket 3.9 23:11:12 10° S 23:17:13 61° E 23:23:15 10° NNE
Meteor 1-20 Rocket 4.2 23:12:31 10° N 23:18:08 88° W 23:23:49 10° S
CBERS 1 LM4 rocket 4.3 23:15:11 10° SSE 23:19:53 56° ENE 23:24:32 10° N
Cosmos 1782 2.6 23:16:22 10° S 23:20:13 67° E 23:23:55 11° NNE
RESURS DK-1 4.2 23:17:46 10° N 23:19:08 15° NNE 23:19:08 15° NNE
Cosmos 192 4.3 23:17:03 10° S 23:21:51 61° ESE 23:25:32 17° NNE
SL-08 R/B 3.6 23:22:27 19° NE 23:25:25 43° E 23:29:51 10° S
Cosmos 1603 3.6 23:22:29 10° NNW 23:28:12 81° ENE 23:33:49 10° SSE
Cosmos 1812 Rocket 4.1 23:24:05 10° SSW 23:28:21 59° W 23:32:40 10° N
Helios 1A 3.1 23:24:53 10° N 23:29:02 74° WNW 23:33:10 10° SSW
SL-8 R/B 3.8 23:24:29 10° WNW 23:29:16 78° SSW 23:32:50 18° SE
ISS -1.7 23:29:41 10° WNW 23:32:38 29° SW 23:35:34 10° SSE
JB-3 4.2 23:32:56 33° NE 23:34:23 56° E 23:38:06 10° S
CZ-4B R/B 3.5 23:30:56 10° SSE 23:36:02 80° WSW 23:41:00 10° NNW
H-2A R/B 3.8 23:35:04 10° SSW 23:37:12 15° S 23:40:41 10° SE
Cosmos 676 Rocket 4.4 23:35:37 10° N 23:40:33 38° ENE 23:41:13 36° E
Meteor 2-17 Rocket 4.5 23:37:47 10° S 23:43:56 84° W 23:50:07 10° N
SL-4 R/B 4.1 23:42:54 10° SSE 23:43:13 11° SSE 23:43:13 11° SSE
NOAA 6 4.0 23:40:55 10° SSE 23:46:03 84° WSW 23:51:13 10° NNW
Cosmos 1943 4.3 23:46:19 10° NW 23:51:39 44° WSW 23:56:57 10° S
Cosmos 220 Rocket 3.8 23:48:19 10° NNW 23:52:38 75° ENE 23:54:30 32° SSE
